Location: Unspecified
(0.0000°N, 0.0000°E)
Time: 09:10:05
(UTC+00:00)

Transit 4A - All Passes

Search period start: 11 February 2026 00:00
Search period end: 21 February 2026 00:00
Orbit: 865 x 976 km, 66.8° (Epoch: 10 February)

Date Brightness Start Highest point End Pass type
(mag) Time Alt. Az. Time Alt. Az. Time Alt. Az.
11 Feb - 02:45:01 10° SSE 02:49:00 19° ESE 02:53:00 10° ENE night (unlit)
11 Feb - 04:30:00 10° SW 04:35:01 31° WNW 04:40:04 10° N visible
11 Feb - 15:39:58 10° NNW 15:46:21 88° WSW 15:52:44 10° SSE daylight
12 Feb - 02:52:35 10° S 02:57:43 33° ESE 03:02:51 10° NE night (unlit)
12 Feb - 04:39:56 10° WSW 04:43:44 18° WNW 04:47:32 10° NNW night (unlit)
12 Feb - 14:06:04 10° NE 14:08:57 13° ENE 14:11:51 10° E daylight
12 Feb - 15:48:53 10° NNW 15:55:03 53° WSW 16:01:14 10° S daylight
13 Feb - 03:00:45 10° S 03:06:25 58° ESE 03:12:05 10° NNE night (unlit)
13 Feb - 14:12:50 10° NNE 14:17:43 23° ENE 14:22:35 10° ESE daylight
13 Feb - 15:58:12 10° NW 16:03:46 32° WSW 16:09:20 10° S daylight
14 Feb - 03:09:19 10° SSW 03:15:06 82° WNW 03:20:54 10° NNE night (unlit)
14 Feb - 14:20:36 10° N 14:26:26 38° ENE 14:32:16 10° SE daylight
14 Feb - 16:08:09 10° WNW 16:12:30 19° WSW 16:16:51 10° SSW daylight
15 Feb - 01:35:33 10° SE 01:37:45 12° ESE 01:39:57 10° E night (unlit)
15 Feb - 03:18:16 10° SW 03:23:48 47° WNW 03:29:20 10° N night (unlit)
15 Feb - 14:28:51 10° N 14:35:09 64° ENE 14:41:26 10° SSE daylight
15 Feb - 16:20:02 10° W 16:21:15 11° WSW 16:22:29 10° WSW daylight
16 Feb - 01:42:07 10° SSE 01:46:29 22° ESE 01:50:50 10° ENE night (unlit)
16 Feb - 03:27:42 10° SW 03:32:30 27° WNW 03:37:19 10° NNW night (unlit)
16 Feb - 14:37:29 10° NNW 14:43:51 78° WSW 14:50:13 10° SSE daylight
17 Feb - 01:49:53 10° S 01:55:12 38° ESE 02:00:30 10° NE night (unlit)
17 Feb - 03:37:54 10° WSW 03:41:13 16° WNW 03:44:33 10° NW night (unlit)
17 Feb - 13:02:55 10° NE 13:06:29 15° ENE 13:10:02 10° ESE daylight
17 Feb - 14:46:30 10° NW 14:52:33 47° WSW 14:58:37 10° S daylight
18 Feb - 01:58:10 10° SSW 02:03:54 66° ESE 02:09:38 10° NNE night (unlit)
18 Feb - 13:10:02 10° NNE 13:15:13 26° ENE 13:20:23 10° SE daylight
18 Feb - 14:55:56 10° NW 15:01:16 28° WSW 15:06:36 10° SSW daylight
19 Feb - 02:06:49 10° SSW 02:12:34 72° WNW 02:18:21 10° NNE night (unlit)
19 Feb - 13:17:57 10° N 13:23:56 43° ENE 13:29:56 10° SE daylight
19 Feb - 15:06:08 10° WNW 15:10:00 17° WSW 15:13:54 10° SSW daylight
20 Feb - 00:32:17 10° SE 00:35:14 14° ESE 00:38:12 10° E night (unlit)
20 Feb - 02:15:52 10° SW 02:21:16 41° WNW 02:26:41 10° N night (unlit)
20 Feb - 13:26:18 10° NNW 13:32:39 73° ENE 13:38:58 10° SSE daylight
